Time,TemperatureF,DewpointF,PressureIn,WindDirection,WindDirectionDegrees,WindSpeedMPH,WindSpeedGustMPH,Humidity,HourlyPrecipIn,Conditions,Clouds,dailyrainin,SoftwareType,DateUTC
2013-06-23 00:05:00,65.0,54.6,30.07,SW,225,6.0,13.0,69,0.00,,,-99.99,WeatherLink 5.5,2013-06-23 04:05:00,
2013-06-23 01:05:00,65.0,54.6,30.07,SW,225,6.0,13.0,69,0.00,,,-99.99,WeatherLink 5.5,2013-06-23 05:05:00,
2013-06-23 02:05:00,64.0,55.2,30.07,WSW,247,4.0,11.0,73,0.00,,,-99.99,WeatherLink 5.5,2013-06-23 06:05:00,
2013-06-23 03:05:00,65.2,56.7,30.06,WSW,247,4.0,10.0,74,0.00,,,-99.99,WeatherLink 5.5,2013-06-23 07:05:00,
2013-06-23 04:05:00,66.1,57.9,30.04,WSW,247,4.0,11.0,75,0.00,,,-99.99,WeatherLink 5.5,2013-06-23 08:05:00,
2013-06-23 05:05:00,65.6,58.6,30.03,WSW,247,4.0,7.0,78,0.00,,,-99.99,WeatherLink 5.5,2013-06-23 09:05:00,
2013-06-23 06:05:00,65.0,59.0,30.04,West,270,4.0,8.0,81,0.00,,,-99.99,WeatherLink 5.5,2013-06-23 10:05:00,
2013-06-23 07:05:00,66.0,60.0,30.05,West,270,4.0,9.0,81,0.00,,,-99.99,WeatherLink 5.5,2013-06-23 11:05:00,
2013-06-23 08:05:00,69.6,61.7,30.06,West,270,5.0,11.0,76,0.00,,,-99.99,WeatherLink 5.5,2013-06-23 12:05:00,
2013-06-23 09:05:00,71.8,63.1,30.07,West,270,7.0,14.0,74,0.00,,,-99.99,WeatherLink 5.5,2013-06-23 13:05:00,
2013-06-23 10:05:00,75.4,64.9,30.07,West,270,8.0,16.0,70,0.00,,,-99.99,WeatherLink 5.5,2013-06-23 14:05:00,
2013-06-23 11:05:00,79.2,66.9,30.05,WSW,247,7.0,16.0,66,0.00,,,-99.99,WeatherLink 5.5,2013-06-23 15:05:00,
2013-06-23 12:05:00,83.2,67.9,30.04,WSW,247,7.0,15.0,60,0.00,,,-99.99,WeatherLink 5.5,2013-06-23 16:05:00,
2013-06-23 13:00:00,85.7,68.2,30.04,WSW,247,6.0,14.0,56,0.00,,,-99.99,WeatherLink 5.5,2013-06-23 17:00:00,
2013-06-23 13:05:00,85.7,68.2,30.04,WSW,247,6.0,14.0,56,0.00,,,-99.99,WeatherLink 5.5,2013-06-23 17:05:00,
2013-06-23 14:05:00,86.7,65.3,30.02,WSW,247,8.0,18.0,49,0.00,,,-99.99,WeatherLink 5.5,2013-06-23 18:05:00,
2013-06-23 15:05:00,87.2,65.1,30.00,WSW,247,7.0,18.0,48,0.00,,,-99.99,WeatherLink 5.5,2013-06-23 19:05:00,
2013-06-23 16:05:00,88.0,64.6,29.98,WSW,247,7.0,16.0,46,0.00,,,-99.99,WeatherLink 5.5,2013-06-23 20:05:00,
2013-06-23 17:05:00,86.5,64.5,29.97,WSW,247,8.0,19.0,48,0.00,,,-99.99,WeatherLink 5.5,2013-06-23 21:05:00,
2013-06-23 18:05:00,87.0,66.7,29.96,WSW,247,10.0,18.0,51,0.00,,,-99.99,WeatherLink 5.5,2013-06-23 22:05:00,
2013-06-23 19:05:00,83.2,66.9,29.96,WSW,247,10.0,24.0,58,0.00,,,-99.99,WeatherLink 5.5,2013-06-23 23:05:00,
2013-06-23 20:08:00,79.6,68.1,29.95,SW,225,7.0,19.0,68,0.00,,,-99.99,WeatherLink 5.5,2013-06-24 00:08:00,
2013-06-23 21:05:00,77.7,68.4,29.96,SW,225,6.0,16.0,73,0.00,,,-99.99,WeatherLink 5.5,2013-06-24 01:05:00,
2013-06-23 22:05:00,-999.0,-99.9,29.97,WSW,247,4.0,7.0,-999,0.00,,,-99.99,WeatherLink 5.5,2013-06-24 02:05:00,
2013-06-23 23:05:00,72.7,66.9,29.97,WSW,247,6.0,10.0,82,0.00,,,-99.99,WeatherLink 5.5,2013-06-24 03:05:00,